TimeAKDT,TemperatureF,Dew PointF,Humidity,Sea Level PressureIn,VisibilityMPH,Wind Direction,Wind SpeedMPH,Gust SpeedMPH,PrecipitationIn,Events,Conditions,WindDirDegrees,DateUTC
12:14 AM,42.8,41.0,93,29.51,6.0,SSW,13.8,-,0.01,Rain,Light Rain,210,2012-09-01 08:14:00
12:53 AM,42.1,42.1,100,29.52,4.0,South,9.2,-,0.04,Rain,Rain,190,2012-09-01 08:53:00
1:07 AM,42.8,41.0,93,29.51,5.0,SW,5.8,-,0.02,Rain,Light Rain,220,2012-09-01 09:07:00
1:53 AM,43.0,39.9,89,29.52,10.0,WSW,12.7,-,0.07,,Overcast,250,2012-09-01 09:53:00
2:15 AM,42.8,39.2,87,29.51,10.0,WSW,12.7,-,N/A,,Overcast,240,2012-09-01 10:15:00
2:53 AM,43.0,39.0,86,29.52,10.0,WSW,12.7,-,N/A,,Overcast,240,2012-09-01 10:53:00
3:46 AM,42.8,37.4,81,29.52,10.0,SW,13.8,-,N/A,,Overcast,220,2012-09-01 11:46:00
3:53 AM,43.0,39.0,86,29.52,10.0,SW,11.5,-,N/A,,Overcast,230,2012-09-01 11:53:00
4:13 AM,42.8,39.2,87,29.52,10.0,SW,12.7,-,N/A,,Overcast,220,2012-09-01 12:13:00
4:53 AM,42.1,39.0,89,29.52,10.0,SSW,12.7,-,N/A,,Overcast,210,2012-09-01 12:53:00
5:51 AM,42.8,39.2,87,29.52,10.0,SSW,12.7,-,N/A,,Overcast,210,2012-09-01 13:51:00
5:53 AM,42.1,39.0,89,29.53,10.0,SSW,11.5,-,N/A,,Overcast,210,2012-09-01 13:53:00
6:01 AM,42.8,39.2,87,29.53,10.0,SSW,11.5,-,N/A,,Overcast,210,2012-09-01 14:01:00
6:08 AM,42.8,39.2,87,29.52,10.0,SSW,11.5,-,N/A,,Overcast,200,2012-09-01 14:08:00
6:53 AM,42.1,39.9,92,29.53,9.0,SSW,10.4,-,0.00,Rain,Light Rain,200,2012-09-01 14:53:00
7:07 AM,42.8,39.2,87,29.52,4.0,South,9.2,-,0.00,Rain,Light Rain,190,2012-09-01 15:07:00
7:31 AM,42.8,41.0,93,29.52,7.0,South,10.4,-,0.04,Rain,Light Rain,190,2012-09-01 15:31:00
7:53 AM,42.1,39.9,92,29.53,10.0,SSW,12.7,-,0.04,Rain,Light Rain,210,2012-09-01 15:53:00
8:33 AM,41.0,39.2,93,29.53,6.0,SSW,15.0,-,0.00,,Overcast,210,2012-09-01 16:33:00
8:53 AM,42.1,39.0,89,29.53,10.0,SSW,12.7,-,0.00,,Overcast,210,2012-09-01 16:53:00
9:30 AM,42.8,39.2,87,29.53,7.0,South,11.5,-,N/A,,Overcast,190,2012-09-01 17:30:00
9:53 AM,42.1,39.0,89,29.54,7.0,South,12.7,-,N/A,,Overcast,180,2012-09-01 17:53:00
10:53 AM,41.0,39.9,96,29.55,8.0,South,12.7,-,0.00,Rain,Light Rain,180,2012-09-01 18:53:00
11:53 AM,42.1,39.9,92,29.55,6.0,South,12.7,-,0.01,Rain,Light Rain,170,2012-09-01 19:53:00
12:53 PM,42.1,39.9,92,29.55,6.0,South,9.2,-,0.00,Rain,Light Rain,170,2012-09-01 20:53:00
1:53 PM,42.1,39.9,92,29.55,8.0,South,6.9,-,0.00,,Overcast,170,2012-09-01 21:53:00
2:53 PM,42.1,39.9,92,29.56,8.0,South,11.5,-,0.00,Rain,Light Rain,190,2012-09-01 22:53:00
3:19 PM,42.8,39.2,87,29.55,9.0,South,10.4,-,0.00,Rain,Light Rain,180,2012-09-01 23:19:00
3:33 PM,42.8,39.2,87,29.57,8.0,South,11.5,-,0.00,,Overcast,180,2012-09-01 23:33:00
3:53 PM,42.1,39.9,92,29.57,8.0,South,9.2,-,0.00,Rain,Light Rain,170,2012-09-01 23:53:00
4:53 PM,43.0,39.9,89,29.57,10.0,South,8.1,-,0.00,,Overcast,170,2012-09-02 00:53:00
5:53 PM,43.0,39.9,89,29.57,10.0,SSE,12.7,-,0.00,Rain,Light Rain,160,2012-09-02 01:53:00
6:53 PM,43.0,39.9,89,29.57,4.0,SSE,10.4,-,0.03,Rain,Light Rain,160,2012-09-02 02:53:00
7:53 PM,43.0,41.0,93,29.57,9.0,SSE,9.2,-,0.02,Rain,Light Rain,160,2012-09-02 03:53:00
8:44 PM,42.8,41.0,93,29.58,10.0,South,9.2,-,N/A,Rain,Light Rain,170,2012-09-02 04:44:00
8:53 PM,43.0,39.9,89,29.57,8.0,SSE,10.4,-,0.00,Rain,Light Rain,150,2012-09-02 04:53:00
9:53 PM,43.0,39.9,89,29.58,10.0,SE,8.1,-,0.01,Rain,Light Rain,130,2012-09-02 05:53:00
10:53 PM,43.0,39.9,89,29.57,10.0,SE,10.4,-,0.00,,Overcast,140,2012-09-02 06:53:00
11:39 PM,44.6,39.2,81,29.58,10.0,ESE,6.9,-,0.00,Rain,Light Rain,120,2012-09-02 07:39:00
11:53 PM,42.1,39.9,92,29.58,10.0,East,5.8,-,0.00,,Overcast,80,2012-09-02 07:53:00